Weather History for Goodland, KS

Change the Weather History Date:

Monday, September 2, 2013

  Actual Average Record
Temperature  
Mean Temperature 73 °F 70 °F  
Max Temperature 89 °F 85 °F 105 °F (1939)
Min Temperature 57 °F 56 °F 38 °F (1974)
Degree Days  
Heating Degree Days 0 1  
Month to date heating degree days 0 2  
Since 1 July heating degree days 7 14  
Cooling Degree Days 8 6  
Month to date cooling degree days 15 12  
Year to date cooling degree days 1013 845  
Growing Degree Days 24 (Base 50)    
Moisture  
Dew Point 50 °F    
Average Humidity 54    
Maximum Humidity 80    
Minimum Humidity 27    
Precipitation  
Precipitation 0.00 in 0.05 in 0.55 in (1911)
Month to date precipitation 0.00 0.10  
Year to date precipitation 8.79 16.00  
Snow  
Snow 0.00 in 0.00 in - ()
Month to date snowfall 0.0 0.0  
Since 1 July snowfall 0.0 0.0  
Since 1 September snowfall 0.0 0.0  
Snow Depth 0.00 in    
Sea Level Pressure  
Sea Level Pressure 30.02 in    
Wind  
Wind Speed 12 mph (South)    
Max Wind Speed 23 mph    
Max Gust Speed 30 mph    
Visibility 10 miles    
Events      
T = Trace of Precipitation, MM = Missing Value Source: NWS Daily Summary

Daily Weather History Graph

Daily Weather History Graph

Search for Another Location

Airport:

Trip Planner

Search our weather history database for the weather conditions in past years. The results will help you decide how hot, cold, wet, or windy it might be!

Date:

Astronomy

Sep. 02, 2013 Rise Set
Actual Time 6:16 AM MDT 7:15 PM MDT
Civil Twilight 5:48 AM MDT 7:42 PM MDT
Nautical Twilight 5:16 AM MDT 8:15 PM MDT
Astronomical Twilight 4:42 AM MDT 8:49 PM MDT
Moon 3:35 AM MDT (9/2) 5:29 PM MDT (9/2)
Length of Visible Light 13h 54m
Length of Day
12h 59m
Waning Crescent, 7% of the Moon is Illuminated
Sep 2
Waning Crescent
Sep 5
New
Sep 12
First Quarter
Sep 19
Full
Sep 26
Last Quarter

Hourly Weather History & Observations

Time (MDT) Temp. Heat Index Dew Point Humidity Pressure Visibility Wind Dir Wind Speed Gust Speed Precip Events Conditions
12:53 AM 57.9 °F - 51.1 °F 78% 30.06 in 10.0 mi Calm Calm - N/A   Clear
1:53 AM 57.0 °F - 50.0 °F 77% 30.05 in 10.0 mi North - - N/A   Partly Cloudy
2:53 AM 59.0 °F - 48.9 °F 69% 30.04 in 10.0 mi South 8.1 mph - N/A   Clear
3:53 AM 61.0 °F - 48.0 °F 62% 30.04 in 10.0 mi South 8.1 mph - N/A   Clear
4:53 AM 61.0 °F - 48.0 °F 62% 30.04 in 10.0 mi SSW 6.9 mph - N/A   Clear
5:53 AM 62.1 °F - 48.0 °F 60% 30.04 in 10.0 mi South 9.2 mph - N/A   Clear
6:53 AM 60.1 °F - 48.9 °F 67% 30.06 in 10.0 mi South 9.2 mph - N/A   Clear
7:53 AM 66.9 °F - 50.0 °F 54% 30.08 in 10.0 mi South 12.7 mph - N/A   Clear
8:53 AM 73.0 °F - 50.0 °F 44% 30.09 in 10.0 mi South 15.0 mph - N/A   Clear
9:53 AM 78.1 °F - 48.9 °F 36% 30.07 in 10.0 mi South 13.8 mph - N/A   Clear
10:53 AM 82.0 °F - 48.9 °F 31% 30.06 in 10.0 mi South 17.3 mph - N/A   Clear
11:53 AM 84.0 °F - 48.9 °F 29% 30.04 in 10.0 mi South 15.0 mph 24.2 mph N/A   Clear
12:53 PM 86.0 °F - 50.0 °F 29% 30.02 in 10.0 mi South 16.1 mph 23.0 mph N/A   Clear
1:53 PM 88.0 °F 85.7 °F 53.1 °F 30% 30.00 in 10.0 mi South 16.1 mph 24.2 mph N/A   Clear
2:53 PM 89.1 °F 86.7 °F 53.1 °F 29% 29.98 in 10.0 mi South 17.3 mph - N/A   Clear
3:53 PM 89.1 °F - 52.0 °F 28% 29.96 in 10.0 mi South 19.6 mph - N/A   Clear
4:53 PM 88.0 °F - 51.1 °F 28% 29.95 in 10.0 mi South 17.3 mph - N/A   Clear
5:53 PM 86.0 °F - 48.9 °F 28% 29.95 in 10.0 mi South 17.3 mph 25.3 mph N/A   Clear
6:53 PM 82.0 °F - 48.0 °F 30% 29.96 in 10.0 mi SSE 12.7 mph - N/A   Clear
7:53 PM 73.0 °F - 50.0 °F 44% 29.97 in 10.0 mi SSE 8.1 mph - N/A   Clear
8:53 PM 69.1 °F - 51.1 °F 53% 29.99 in 10.0 mi SSE 8.1 mph - N/A   Clear
9:53 PM 66.9 °F - 51.1 °F 57% 29.99 in 10.0 mi SSE 10.4 mph - N/A   Clear
10:53 PM 64.9 °F - 52.0 °F 63% 29.98 in 10.0 mi SSE 9.2 mph - N/A   Clear
11:53 PM 64.9 °F - 52.0 °F 63% 29.98 in 10.0 mi South 11.5 mph - N/A   Clear